933  
ASUS46 KSTO 252215  
RWRCA  
 
NORTHERN AND CENTRAL CA REGIONAL WEATHER ROUNDUP  
NATIONAL WEATHER SERVICE SACRAMENTO CA  
300 PM PDT TUE JUN 25 2019  
 
NOTE: FAIR INDICATES FEW OR NO CLOUDS BELOW 12,000 FEET WITH NO  
SIGNIFICANT WEATHER AND/OR S TO VISIBILITY
.  
 
CAZ001-003-252300-  
NORTHWEST AREA  
 
CITY SKY/WX TMP DP RH WIND PRES REMARKS
 
CRESCENT CITY PTSUNNY 59 54 83 NW7 29.98R  
UKIAH SUNNY 82 38 20 NW13G21 29.84F  

 
 
CAZ006-505>513-252300-  
BAY AREA  
 
CITY SKY/WX TMP DP RH WIND PRES REMARKS
 
SANTA ROSA MOSUNNY 88 53 30 S8G18 29.79F  
SAN RAFAEL N/A MM MM MM MISG  
NAPA SUNNY 78 57 48 S17 29.81F  
CONCORD SUNNY 88 44 21 SW13 29.80F  
OAKLAND CITY N/A 70 MM MM MISG  
OAKLAND MOSUNNY 73 52 47 W15 29.87F  
SAN FRAN CITY N/A 65 MM 58 MISG  
SAN FRAN ARPT PTSUNNY 71 50 47 W20G26 29.86F  
LIVERMORE SUNNY 83 45 26 W12 29.83S  
HAYWARD SUNNY 71 54 54 NW9 29.87S  
REDWOOD CITY N/A 76 MM 38 MISG  
MOFFETT ARPT N/A N/A N/A N/A MISG 29.86F  
SAN JOSE ARPT PTSUNNY 80 56 43 NW16 29.84F  

 
CAZ034-037-514>518-252300-  
CENTRAL COAST  
 
CITY SKY/WX TMP DP RH WIND PRES REMARKS
 
WATSONVILLE SUNNY 69 55 60 SW9 29.90S  
SALINAS SUNNY 72 52 49 NW15 29.90R  
MONTEREY SUNNY 66 51 58 W13 29.91S  
SAN LUIS OBISP SUNNY 68 54 60 VRB7 29.90F  
SANTA MARIA MOSUNNY 71 57 61 NW10 29.91F  

 
CAZ015-016-252300-  
NORTHERN SACRAMENTO VALLEY  
 
CITY SKY/WX TMP DP RH WIND PRES REMARKS
 
REDDING MOSUNNY 90 38 16 CALM 29.72F  
RED BLUFF MOSUNNY 91 43 18 SE13 29.74F  
OROVILLE PTSUNNY 89 52 28 VRB5 29.77F  

 
CAZ016>018-252300-  
SOUTHERN SACRAMENTO VALLEY  
 
CITY SKY/WX TMP DP RH WIND PRES REMARKS
 
AUBURN N/A N/A N/A N/A MISG N/A  
LINCOLN FAIR 91 43 18 SW8 29.75F  
MARYSVILLE MOSUNNY 89 53 29 VRB5 29.76F  
PLACERVILLE FAIR 81 46 30 S7 29.91S  
SAC INTL ARPT MOSUNNY 88 53 30 SW9G16 29.75F  
MATHER AIRPORT NOT AVBL  
DOWNTOWN SAC N/A 90 MM MM MISG  
SAC EXEC ARPT SUNNY 87 53 31 S10G17 29.76F  
VACAVILLE SUNNY 92 49 22 W13 29.77F  
TRAVIS AFB SUNNY 88 53 29 SW21 29.77F  

 
CAZ019>021-252300-  
SAN JOAQUIN VALLEY  
 
CITY SKY/WX TMP DP RH WIND PRES REMARKS
 
STOCKTON MOSUNNY 94 48 20 W18G25 29.77F HX 90  
MODESTO MOSUNNY 93 44 18 W16 29.76F  
MERCED SUNNY 93 50 23 NW12 29.76F HX 90  
LEMOORE MOSUNNY 96 47 18 N8G21 29.76F HX 92  
FRESNO MOSUNNY 94 42 16 NW14 29.77F HX 90  
HANFORD SUNNY 96 42 15 NW13 29.77F HX 92  
PORTERVILLE SUNNY 96 50 20 N10 29.77F HX 93  
BAKERSFIELD SUNNY 95 40 14 NW16 29.75F HX 91  

 
CAZ011-012-071-252300-  
NORTHERN MOUNTAINS  
 
CITY SKY/WX TMP DP RH WIND PRES REMARKS
 
YREKA SUNNY 79 37 22 W9 29.82F  
MOUNT SHASTA MOSUNNY 74 39 28 VRB3 29.84F  
ALTURAS PTSUNNY 74 31 20 W21G30 29.88F  

 
CAZ011-012-071-252300-  
SIERRA NEVADA MTNS  
 
CITY SKY/WX TMP DP RH WIND PRES REMARKS
 
BLUE CANYON MOSUNNY 67 42 40 SW10G20 30.02F  
TRUCKEE MOSUNNY 72 30 21 W15G24 30.01F  
TAHOE VLY ARPT MOSUNNY 71 27 19 S12G21 30.02F  
MAMMOTH LAKES FAIR 76 26 15 SW9G22 30.05F  

 
 
 
CLICK HERE TO GO TO PREVIOUS BULLETINS.

The Nexlab CA Page Main Text Page